Regional Weather Roundup
Issued by NWS

Home | Current Version | Previous Version | Text Only | Print | Product List | Glossary On
Versions: 1 2 3 4 5 6 7 8 9 10 11 12 13 14 15 16 17 18 19 20 21 22 23 24 25 26 27
000
ASUS44 KBMX 241110
RWRAL

ALABAMA REGIONAL WEATHER ROUNDUP
NATIONAL WEATHER SERVICE BIRMINGHAM AL
600 AM CDT FRI OCT 24 2014

NOTE: "FAIR" INDICATES FEW OR NO CLOUDS BELOW 12,000 FEET
WITH NO SIGNIFICANT WEATHER AND/OR OBSTRUCTIONS TO VISIBILITY.

THE REMARK "TC" DENOTES TEMPERATURE IN DEGREES CELSIUS.

ALZ001>011-014-016>018-020-241200-
NORTH ALABAMA

CITY           SKY/WX    TMP DP  RH WIND       PRES   REMARKS
MUSCLE SHOALS  PTCLDY    45  42  89 CALM      30.13R
HUNTSVILLE     CLOUDY    49  44  83 S5        30.10S
DECATUR        MOCLDY    47  43  86 CALM      30.12R
HALEYVILLE     FAIR      48  45  90 NE6       30.12S
GADSDEN        CLOUDY    48  45  87 N3        30.10S
$$

ALZ012-013-022-023-030>036-040>044-241200-
WEST CENTRAL ALABAMA

CITY           SKY/WX    TMP DP  RH WIND       PRES   REMARKS
TUSCALOOSA     CLOUDY    51  48  89 CALM      30.10R
$$

ALZ015-024>027-033>036-040>044-241200-
CENTRAL ALABAMA

CITY           SKY/WX    TMP DP  RH WIND       PRES   REMARKS
BIRMINGHAM     CLOUDY    51  47  86 NE6       30.08F
MONTGOMERY     PTCLDY    45  43  93 CALM      30.08R
SHELBY CO ARPT CLOUDY    53  48  83 CALM      30.06F
MAXWELL AFB    MOCLDY    46  46 100 CALM      30.07R FOG
GREENVILLE     FAIR      49  45  86 N3        30.07R
$$

ALZ019-021-028-029-037-038-045>048-241200-
EAST CENTRAL ALABAMA

CITY           SKY/WX    TMP DP  RH WIND       PRES   REMARKS
ANNISTON       CLOUDY    49  46  90 CALM      30.08F
ALEXANDER CITY MOCLDY    49  47  95 CALM      30.07R
AUBURN         MOCLDY    48  41  76 N3        30.09R
$$

ALZ051>064-241200-
SOUTHWEST ALABAMA

CITY           SKY/WX    TMP DP  RH WIND       PRES   REMARKS
MOBILE         MOCLDY    51  48  89 N5        30.08S
BROOKLEY FIELD PTCLDY    53  49  86 N5        30.09R
EVERGREEN      CLEAR     50  46  86 NW5       30.08R
$$

ALZ049-050-065>069-241200-
SOUTHEAST ALABAMA

CITY           SKY/WX    TMP DP  RH WIND       PRES   REMARKS
DOTHAN         MOCLDY    51  47  86 CALM      30.08R
OZARK          CLOUDY    53  47  80 NW7       30.05R
TROY           PTCLDY    44  43  96 CALM      30.08R
EUFAULA        FAIR      44  42  93 CALM      30.05R
$$



USA.gov is the U.S. government's official web portal to all federal, state and local government web resources and services.